Content
SEND FEEDBACK

Daily
Averages
Monthly
Summary
Bosnia and Herzegovina

STOLAC, BOSNIA AND HERZEGOVINA


Home > Europe > Bosnia and Herzegovina
Elevation: 175 feet     Latitude: 43 17N     Longitude: 017 50E

WEATHER
 
SELECT A DAY
Number of Records: 173,038;   Date Range: 2/20/97 - 9/15/14
 
SHARE

PRINT THIS DATA

[ ← Previous Day ]
WEATHER ALMANAC - AUGUST 8, 2014
[ Next Day → ]
[ °C ]   °F
Weather ElementAverageHighLow
Temperature78.3 °F89.6 °F (2:30 pm)62.6 °F (6:00 am)
Dewpoint62.9 °F66.2 °F (1:00 am)59 °F (1:30 pm)
Humidity63.7 %100 % (4:00 am)36 % (3:30 pm)
Barometer29.90 in29.95 in (9:30 pm)29.86 in (4:00 pm)
Wind Speed4.1 mph8.1 mph (4:00 pm)
Weather ElementAverage
Visibility6.2 mi
Wind DirectionESE (115.9 °)

Weather ElementTotal
Precipitation---
Cooling Degree Days11.1 (Base 65)
Growing Degree Days26.1 (Base 50)
Averaged from 34 records on August 8, 2014
WEATHER CONDITIONS BREAKOUT
WIND DIRECTION BREAKOUT
WEATHER BY HOUR - AUGUST 8, 2014
[ °C ]   °F
Local TimeTemperatureDewpointHumidityBarometerVisibilityWind DirectionWind SpeedGust SpeedPrecipitationEventsConditions
1:00 AM68.0 °F66.2 °F94 %29.89 inVariable2.3 mphClear
2:00 AM66.2 °F64.4 °F94 %29.89 inSouth (190°)3.5 mphClear
3:00 AM66.2 °F64.4 °F94 %29.89 inVariable1.2 mphClear
4:00 AM64.4 °F64.4 °F100 %29.89 inVariable2.3 mphClear
5:30 AM64.4 °F62.6 °F94 %29.89 inVariable2.3 mphClear
6:00 AM62.6 °F62.6 °F100 %29.92 in6.2 miVariable2.3 mphPartly Cloudy
6:30 AM62.6 °F62.6 °F100 %29.92 in6.2 miSSE (150°)4.6 mphPartly Cloudy
7:00 AM64.4 °F62.6 °F94 %29.92 in6.2 miVariable2.3 mphPartly Cloudy
7:30 AM66.2 °F64.4 °F94 %29.92 in6.2 miVariable2.3 mphPartly Cloudy
8:00 AM69.8 °F64.4 °F83 %29.92 in6.2 miVariable2.3 mphPartly Cloudy
9:00 AM73.4 °F64.4 °F73 %29.92 in6.2 miVariable2.3 mphPartly Cloudy
10:00 AM77.0 °F64.4 °F65 %29.92 in6.2 miSSE (160°)3.5 mphPartly Cloudy
11:00 AM82.4 °F62.6 °F51 %29.92 in6.2 miSSE (160°)3.5 mphPartly Cloudy
12:00 PM84.2 °F62.6 °F48 %29.92 in6.2 miVariable3.5 mphPartly Cloudy
1:00 PM86.0 °F60.8 °F43 %29.92 in6.2 miVariable3.5 mphPartly Cloudy
1:30 PM86.0 °F59.0 °F40 %29.89 in6.2 miVariable3.5 mphPartly Cloudy
2:00 PM87.8 °F59.0 °F38 %29.89 in6.2 miVariable2.3 mphPartly Cloudy
2:30 PM89.6 °F60.8 °F38 %29.89 in6.2 miVariable4.6 mphPartly Cloudy
3:00 PM87.8 °F59.0 °F38 %29.89 in6.2 miNNW (340°)5.8 mphPartly Cloudy
3:30 PM89.6 °F59.0 °F36 %29.89 in6.2 miNW (320°)5.8 mphPartly Cloudy
4:00 PM89.6 °F60.8 °F38 %29.86 in6.2 miWest (280°)8.1 mphPartly Cloudy
4:30 PM89.6 °F60.8 °F38 %29.86 in6.2 miWNW (300°)5.8 mphPartly Cloudy
5:00 PM89.6 °F60.8 °F38 %29.86 in6.2 miWest (260°)5.8 mphPartly Cloudy
5:30 PM89.6 °F60.8 °F38 %29.86 in6.2 miWest (260°)5.8 mphPartly Cloudy
6:00 PM89.6 °F62.6 °F40 %29.86 in6.2 miWest (270°)5.8 mphPartly Cloudy
6:30 PM87.8 °F60.8 °F40 %29.86 in6.2 miSW (230°)3.5 mphPartly Cloudy
7:00 PM86.0 °F64.4 °F48 %29.89 in6.2 miSSE (160°)4.6 mphPartly Cloudy
7:30 PM84.2 °F64.4 °F51 %29.89 in6.2 miSouth (170°)6.9 mphPartly Cloudy
8:00 PM80.6 °F66.2 °F61 %29.89 in6.2 miSSE (160°)8.1 mphPartly Cloudy
8:30 PM77.0 °F66.2 °F69 %29.92 in6.2 miSouth (170°)5.8 mphPartly Cloudy
9:00 PM77.0 °F66.2 °F69 %29.92 in6.2 miSSW (200°)5.8 mphPartly Cloudy
9:30 PM75.2 °F66.2 °F73 %29.95 in6.2 miESE (120°)3.5 mphPartly Cloudy
10:00 PM75.2 °F64.4 °F69 %29.95 in6.2 miVariable2.3 mphPartly Cloudy
11:00 PM71.6 °F64.4 °F78 %29.95 in6.2 miNE (40°)3.5 mphPartly Cloudy
Hourly data recorded from LQMO, located miles away from Stolac, Bosnia and Herzegovina







STORIES FROM OUR PARTNERS